Lakeland Region, FL

8:36 AM EDT on April 25, 2017 (GMT -0400)
Lakeland Linder Regional

Weather History for KLAL - October, 2012

Change the Weather History Date:

Tuesday, October 9, 2012

  Actual Average Record
Temperature  
Mean Temperature 76 °F -  
Max Temperature 84 °F 82 °F 93 °F (2009)
Min Temperature 69 °F 67 °F 53 °F (2000)
Cooling Degree Days 12    
Growing Degree Days 26 (Base 50)    
Moisture  
Dew Point 70 °F    
Average Humidity 88    
Maximum Humidity 100    
Minimum Humidity 62    
Precipitation  
Precipitation 0.00 in - - ()
Sea Level Pressure  
Sea Level Pressure 30.02 in    
Wind  
Wind Speed 1 mph (NE)    
Max Wind Speed 9 mph    
Max Gust Speed -    
Visibility 9 miles    
Events      
Averages and records for this station are not official NWS values.
T = Trace of Precipitation, MM = Missing Value Source: NWS Daily Summary

Daily Weather History Graph

Daily Weather History Graph

Search for Another Location

Airport or City:

Trip Planner

Search our weather history database for the weather conditions in past years. The results will help you decide how hot, cold, wet, or windy it might be!

Date:

Astronomy

Oct. 09, 2012 Rise Set
Actual Time 7:25 AM EDT 7:04 PM EDT
Civil Twilight 7:01 AM EDT 7:28 PM EDT
Nautical Twilight 6:34 AM EDT 7:55 PM EDT
Astronomical Twilight 6:07 AM EDT 8:22 PM EDT
Moon 1:30 AM EDT (10/9) 3:04 PM EDT (10/9)
Length of Visible Light 12h 26m
Length of Day
11h 39m
Last Quarter, 37% of the Moon is Illuminated
Oct 9
Last Quarter
Oct 15
New
Oct 21
First Quarter
Oct 29
Full
Nov 6
Last Quarter

Hourly Weather History & Observations

Time (EDT) Temp. Heat Index Dew Point Humidity Pressure Visibility Wind Dir Wind Speed Gust Speed Precip Events Conditions
12:35 AM 71.6 °F - 71.6 °F 100% 30.02 in 10.0 mi Calm Calm - N/A   Clear
12:55 AM 71.6 °F - 71.6 °F 100% 30.03 in 10.0 mi Calm Calm - N/A   Clear
1:15 AM 71.6 °F - 71.6 °F 100% 30.02 in 10.0 mi Calm Calm - N/A   Clear
1:35 AM 71.6 °F - 71.6 °F 100% 30.01 in 7.0 mi Calm Calm - N/A   Clear
1:55 AM 71.6 °F - 69.8 °F 94% 30.00 in 7.0 mi Calm Calm - N/A   Clear
2:15 AM 71.6 °F - 71.6 °F 100% 30.00 in 10.0 mi Calm Calm - N/A   Clear
2:35 AM 71.6 °F - 69.8 °F 94% 30.00 in 7.0 mi Calm Calm - N/A   Scattered Clouds
2:55 AM 71.6 °F - 69.8 °F 94% 29.99 in 7.0 mi Calm Calm - N/A   Clear
3:15 AM 71.6 °F - 69.8 °F 94% 29.99 in 10.0 mi Calm Calm - N/A   Clear
3:35 AM 71.6 °F - 69.8 °F 94% 29.99 in 7.0 mi Calm Calm - N/A   Clear
4:15 AM 71.6 °F - 69.8 °F 94% 29.99 in 10.0 mi Calm Calm - N/A   Clear
4:35 AM 71.6 °F - 69.8 °F 94% 29.99 in 10.0 mi Calm Calm - N/A   Clear
4:55 AM 71.6 °F - 69.8 °F 94% 29.99 in 7.0 mi Calm Calm - N/A   Clear
5:15 AM 69.8 °F - 69.8 °F 100% 29.99 in 7.0 mi Calm Calm - N/A   Clear
5:35 AM 69.8 °F - 69.8 °F 100% 30.00 in 7.0 mi Calm Calm - N/A   Clear
5:50 AM 71.6 °F - 69.8 °F 94% 30.00 in 10.0 mi Calm Calm - N/A   Clear
5:55 AM 69.8 °F - 69.8 °F 100% 30.00 in 7.0 mi Calm Calm - N/A   Clear
6:15 AM 69.8 °F - 69.8 °F 100% 30.01 in 7.0 mi Calm Calm - N/A   Clear
6:35 AM 69.8 °F - 69.8 °F 100% 30.01 in 5.0 mi North 3.5 mph - N/A   Clear
6:50 AM 71.6 °F - 69.8 °F 94% 30.01 in 10.0 mi Calm Calm - N/A   Clear
7:50 AM 71.6 °F - 69.8 °F 94% 30.02 in 8.0 mi Calm Calm - N/A   Clear
8:16 AM 71.6 °F - 69.8 °F 94% 30.02 in 3.0 mi Calm Calm - N/A   Mostly Cloudy
8:50 AM 73.4 °F - 71.6 °F 94% 30.04 in 3.0 mi Calm Calm - N/A   Overcast
9:50 AM 73.4 °F - 71.6 °F 94% 30.05 in 5.0 mi Calm Calm - N/A   Overcast
10:50 AM 75.2 °F - 73.4 °F 94% 30.06 in 5.0 mi Calm Calm - N/A   Overcast
11:50 AM 77.0 °F - 71.6 °F 83% 30.06 in 5.0 mi Variable 4.6 mph - N/A   Overcast
12:50 PM 78.8 °F - 71.6 °F 78% 30.05 in 10.0 mi NE 5.8 mph - N/A   Overcast
1:50 PM 80.6 °F 84.6 °F 71.6 °F 74% 30.04 in 10.0 mi NNE 5.8 mph - N/A   Mostly Cloudy
2:53 PM 84.2 °F 88.4 °F 69.8 °F 62% 30.02 in 15.0 mi NE 4.6 mph - N/A   Mostly Cloudy
3:50 PM 84.2 °F 88.4 °F 69.8 °F 62% 30.01 in 15.0 mi NNE 8.1 mph - N/A   Mostly Cloudy
4:50 PM 84.2 °F 88.4 °F 69.8 °F 62% 30.00 in 15.0 mi NNE 9.2 mph - N/A   Mostly Cloudy
5:54 PM 84.2 °F 88.4 °F 69.8 °F 62% 30.00 in 15.0 mi North 4.6 mph - N/A   Scattered Clouds
6:51 PM 80.6 °F 83.9 °F 69.8 °F 70% 30.00 in 15.0 mi North 4.6 mph - N/A   Scattered Clouds
7:52 PM 78.8 °F - 71.6 °F 78% 30.02 in 15.0 mi North 5.8 mph - N/A   Mostly Cloudy
8:54 PM 78.8 °F - 71.6 °F 78% 30.04 in 15.0 mi ENE 5.8 mph - N/A   Mostly Cloudy
9:51 PM 78.8 °F - 71.6 °F 78% 30.06 in 15.0 mi East 8.1 mph - N/A   Mostly Cloudy
10:55 PM 73.4 °F - 69.8 °F 88% 30.08 in 10.0 mi East 8.1 mph - N/A   Scattered Clouds
11:15 PM 73.4 °F - 68.0 °F 83% 30.08 in 10.0 mi East 6.9 mph - N/A   Scattered Clouds
11:35 PM 73.4 °F - 68.0 °F 83% 30.08 in 10.0 mi East 5.8 mph - N/A   Clear
11:55 PM 71.6 °F - 68.0 °F 88% 30.07 in 10.0 mi East 6.9 mph - N/A   Clear